ONEWEB-0287, 49077

Orbit data source: Space-Track

ONEWEB-0287, 49077 is a payload satellite owned by One Web (NAA) (UK) in LEO that was launched on Sat, 21 Aug 2021 UTC via a SOYUZ-2-1B launch vehicle from the Tyuratam Missile And Space Complex (TTMTR). Payload-class satellites include a variety of spacecraft equipped with specific instruments for various scientific and technological missions. These include communications satellites like Starlink; space stations such as the ISS; scientific satellites like the Hubble; Earth observation satellites from companies like Planet Labs, Umbra, and HawkEye 360; GPS; miniature CubeSats for education and research; and military/defense satellites.

Loading next visibility...
Identifier
49077, 2021-075C
Orbit
LEO
Country
Flag of UKUK
Related business
Manufacturer
One Web
Mission
Operational Commercial Communications
Bus & Motor
ARROW, Unknown motor
Mass
148 kg wet, ~140 kg dry
Launch date (UTC)
2021-08-21 (5 years ago)
Launch vehicle
SOYUZ-2-1B
Launch site
Tyuratam Missile And Space Complex (TTMTR)
Object type
Payload
Rocket body
Debris
Shape & HBR
Trap Box + 2 Pan, 6.7 m
Radar Cross Section
3.464 m², Large (>1 m²)

Expand to show TLE details & history
Last TLE update: 7 hours ago

TLE from 7 hours ago
0 ONEWEB-0287
1 49077U 21075C   26130.19856876  .00000090  00000-0  19860-3 0  9990
2 49077  87.9167  13.4177 0001853  96.0747 264.0596 13.17650008228623
Epoch: 2026-05-10T04:45Z
TLE epoch observation values (Epoch: 2026-05-10T04:45:56.340Z)
Latitude
-0.00001°
Longitude
73.92786°
Altitude
1,196.753 km
Speed
7.255 km/s
True Right ascension
00h 53m 40s
True Declination
0° 00' 00"
Sunlit
Object was in daylight at epoch
Visualization orbit readout
Latitude
Unknown
Longitude
Unknown
Altitude
Unknown
Speed
Unknown
Apparent Right ascension
Unknown
Apparent Declination
Unknown
Sunlit
N/A
Visualization observer readout
Local Sidereal Time
19:48:54
Azimuth
Unknown
Elevation
Unknown
Doppler factor
Unknown
Orbital elements
Apogee altitude
1,192.221 km
Perigee altitude
1,189.416 km
Semi-major axis
7,568.955 km
Eccentricity
0.00019
Inclination
87.9167°
RAAN
13.4177°
Arg. of periapsis
96.0747°
True anomaly
264.03848°
Mean anomaly
264.0596°
Eccentric anomaly
264.04904°
Mean motion
3.29602 °/min
Orbital period
109.22 mins
BSTAR
0.0001986
Loading maneuver chart data...
Computing Atmospheric mass density...
Loading historical data...
Loading historical data...
Loading historical data...
Loading historical data...
Loading historical data...
Loading historical data...
Loading historical data...

Documentation

Showing up to 5 results
|